Gunnison, CO

9:26 PM MDT on March 27, 2017 (GMT -0600)
Gunnison County

Weather History for KGUC - January, 2012

Change the Weather History Date:

Wednesday, January 25, 2012

  Actual Average Record
Temperature  
Mean Temperature 20 °F -  
Max Temperature 28 °F 23 °F 39 °F (2003)
Min Temperature 12 °F 0 °F -16 °F (2002)
Degree Days  
Heating Degree Days 45    
Moisture  
Dew Point 9 °F    
Average Humidity 65    
Maximum Humidity 79    
Minimum Humidity 51    
Precipitation  
Precipitation 0.00 in - - ()
Sea Level Pressure  
Sea Level Pressure 30.34 in    
Wind  
Wind Speed 4 mph (North)    
Max Wind Speed 10 mph    
Max Gust Speed -    
Visibility 10 miles    
Events      
Averages and records for this station are not official NWS values.
T = Trace of Precipitation, MM = Missing Value Source: NWS Daily Summary

Daily Weather History Graph

Daily Weather History Graph

Search for Another Location

Airport or City:

Trip Planner

Search our weather history database for the weather conditions in past years. The results will help you decide how hot, cold, wet, or windy it might be!

Date:

Astronomy

Jan. 25, 2012 Rise Set
Actual Time 7:18 AM MST 5:21 PM MST
Civil Twilight 6:50 AM MST 5:49 PM MST
Nautical Twilight 6:18 AM MST 6:21 PM MST
Astronomical Twilight 5:46 AM MST 6:53 PM MST
Moon 8:22 AM MST (1/25) 8:14 PM MST (1/25)
Length of Visible Light 10h 59m
Length of Day
10h 02m
Waxing Crescent, 7% of the Moon is Illuminated
Jan 25
Waxing Crescent
Jan 30
First Quarter
Feb 7
Full
Feb 14
Last Quarter
Feb 21
New

Hourly Weather History & Observations

Time (MST) Temp. Windchill Dew Point Humidity Pressure Visibility Wind Dir Wind Speed Gust Speed Precip Events Conditions
12:15 AM 14.0 °F 6.5 °F 8.6 °F 79% 30.30 in 10.0 mi NE 4.6 mph - N/A   Overcast
12:35 AM 15.8 °F - 8.6 °F 73% 30.30 in 10.0 mi Calm Calm - N/A   Overcast
12:55 AM 15.8 °F 8.6 °F 6.8 °F 68% 30.30 in 10.0 mi NNE 4.6 mph - N/A   Overcast
1:35 AM 14.0 °F - 6.8 °F 73% 30.32 in 10.0 mi Calm Calm - N/A   Overcast
1:55 AM 15.8 °F 8.6 °F 6.8 °F 68% 30.33 in 10.0 mi North 4.6 mph - N/A   Overcast
2:15 AM 15.8 °F 6.1 °F 8.6 °F 73% 30.34 in 10.0 mi North 6.9 mph - N/A   Overcast
2:35 AM 15.8 °F 7.2 °F 6.8 °F 68% 30.34 in 10.0 mi North 5.8 mph - N/A   Overcast
2:55 AM 15.8 °F 5.1 °F 6.8 °F 68% 30.34 in 10.0 mi North 8.1 mph - N/A   Overcast
3:15 AM 15.8 °F 6.1 °F 6.8 °F 68% 30.34 in 10.0 mi NNW 6.9 mph - N/A   Overcast
3:35 AM 15.8 °F 8.6 °F 6.8 °F 68% 30.34 in 10.0 mi NE 4.6 mph - N/A   Overcast
3:55 AM 14.0 °F 6.5 °F 6.8 °F 73% 30.33 in 10.0 mi North 4.6 mph - N/A   Overcast
4:15 AM 14.0 °F 6.5 °F 6.8 °F 73% 30.33 in 10.0 mi North 4.6 mph - N/A   Overcast
4:35 AM 14.0 °F 1.2 °F 3.2 °F 62% 30.34 in 10.0 mi NNE 10.4 mph - N/A   Overcast
4:55 AM 14.0 °F 3.9 °F 5.0 °F 67% 30.34 in 10.0 mi North 6.9 mph - N/A   Overcast
5:15 AM 14.0 °F 2.9 °F 5.0 °F 67% 30.35 in 10.0 mi North 8.1 mph - N/A   Overcast
5:35 AM 14.0 °F 2.0 °F 5.0 °F 67% 30.36 in 10.0 mi North 9.2 mph - N/A   Overcast
5:55 AM 14.0 °F 3.9 °F 3.2 °F 62% 30.37 in 10.0 mi North 6.9 mph - N/A   Overcast
6:15 AM 15.8 °F 8.6 °F 5.0 °F 62% 30.37 in 10.0 mi NNW 4.6 mph - N/A   Overcast
6:35 AM 14.0 °F 6.5 °F 5.0 °F 67% 30.39 in 9.0 mi NW 4.6 mph - N/A   Overcast
6:55 AM 14.0 °F - 6.8 °F 73% 30.39 in 10.0 mi Calm Calm - N/A   Overcast
7:15 AM 14.0 °F 5.1 °F 3.2 °F 62% 30.39 in 10.0 mi North 5.8 mph - N/A   Overcast
7:55 AM 12.2 °F 1.7 °F 5.0 °F 73% 30.40 in 10.0 mi North 6.9 mph - N/A   Overcast
8:15 AM 12.2 °F 0.7 °F 3.2 °F 67% 30.41 in 10.0 mi North 8.1 mph - N/A   Overcast
8:35 AM 14.0 °F 2.9 °F 3.2 °F 62% 30.42 in 10.0 mi North 8.1 mph - N/A   Overcast
8:55 AM 12.2 °F -0.2 °F 3.2 °F 67% 30.42 in 10.0 mi North 9.2 mph - N/A   Mostly Cloudy
9:15 AM 15.8 °F 7.2 °F 5.0 °F 62% 30.43 in 10.0 mi North 5.8 mph - N/A   Partly Cloudy
9:35 AM 17.6 °F 12.3 °F 6.8 °F 63% 30.43 in 10.0 mi North 3.5 mph - N/A   Clear
9:55 AM 17.6 °F 12.3 °F 6.8 °F 63% 30.42 in 10.0 mi NW 3.5 mph - N/A   Clear
10:15 AM 17.6 °F 10.7 °F 6.8 °F 63% 30.42 in 10.0 mi NW 4.6 mph - N/A   Mostly Cloudy
10:35 AM 19.4 °F - 8.6 °F 63% 30.41 in 10.0 mi Calm Calm - N/A   Overcast
10:55 AM 19.4 °F 14.3 °F 8.6 °F 63% 30.41 in 10.0 mi North 3.5 mph - N/A   Scattered Clouds
11:15 AM 21.2 °F - 10.4 °F 63% 30.40 in 10.0 mi Calm Calm - N/A   Clear
11:35 AM 24.8 °F 20.5 °F 12.2 °F 59% 30.38 in 10.0 mi NE 3.5 mph - N/A   Clear
11:55 AM 24.8 °F - 12.2 °F 59% 30.37 in 10.0 mi Calm Calm - N/A   Clear
12:15 PM 24.8 °F 20.5 °F 10.4 °F 54% 30.36 in 10.0 mi ENE 3.5 mph - N/A   Clear
12:35 PM 24.8 °F - 12.2 °F 59% 30.35 in 10.0 mi North - - N/A   Clear
12:55 PM 24.8 °F 20.5 °F 12.2 °F 59% 30.34 in 10.0 mi East 3.5 mph - N/A   Clear
1:15 PM 26.6 °F - 14.0 °F 59% 30.33 in 10.0 mi Calm Calm - N/A   Clear
1:35 PM 28.4 °F - 12.2 °F 51% 30.31 in 10.0 mi Calm Calm - N/A   Clear
2:35 PM - - - N/A% 30.29 in - West 4.6 mph - N/A   Unknown
2:55 PM 28.4 °F 24.6 °F 15.8 °F 59% 30.29 in 10.0 mi WSW 3.5 mph - N/A   Clear
3:35 PM 28.4 °F - 14.0 °F 55% 30.29 in 10.0 mi Calm Calm - N/A   Clear
3:55 PM 28.4 °F - 14.0 °F 55% 30.29 in 10.0 mi Calm Calm - N/A   Clear
4:15 PM 28.4 °F - 15.8 °F 59% 30.29 in 10.0 mi Calm Calm - N/A   Clear
4:35 PM 26.6 °F - 14.0 °F 59% 30.28 in 10.0 mi Calm Calm - N/A   Clear
4:55 PM 26.6 °F - 14.0 °F 59% 30.29 in 10.0 mi Calm Calm - N/A   Clear
5:15 PM 26.6 °F 21.2 °F 12.2 °F 55% 30.28 in 10.0 mi North 4.6 mph - N/A   Clear
5:35 PM 26.6 °F 21.2 °F 12.2 °F 55% 30.28 in 10.0 mi NNW 4.6 mph - N/A   Clear
5:55 PM 23.0 °F - 12.2 °F 63% 30.30 in 10.0 mi Calm Calm - N/A   Clear
6:15 PM 21.2 °F 13.6 °F 14.0 °F 74% 30.30 in 10.0 mi NNW 5.8 mph - N/A   Clear
6:35 PM 19.4 °F 11.5 °F 10.4 °F 68% 30.30 in 10.0 mi NNW 5.8 mph - N/A   Clear
6:55 PM 19.4 °F 11.5 °F 10.4 °F 68% 30.32 in 10.0 mi NNW 5.8 mph - N/A   Clear
7:15 PM 17.6 °F 10.7 °F 10.4 °F 73% 30.32 in 10.0 mi NNE 4.6 mph - N/A   Clear
7:35 PM 15.8 °F - 8.6 °F 73% 30.31 in 10.0 mi Calm Calm - N/A   Clear
7:55 PM 15.8 °F - 10.4 °F 79% 30.32 in 10.0 mi Calm Calm - N/A   Clear
8:15 PM 15.8 °F 6.1 °F 8.6 °F 73% 30.32 in 9.0 mi North 6.9 mph - N/A   Clear
8:35 PM 10.4 °F 2.2 °F 5.0 °F 79% 30.32 in 10.0 mi SE 4.6 mph - N/A   Clear
8:55 PM 12.2 °F - 8.6 °F 85% 30.33 in 10.0 mi Calm Calm - N/A   Clear
9:15 PM 14.0 °F - 10.4 °F 86% 30.33 in 10.0 mi Calm Calm - N/A   Clear
9:35 PM 12.2 °F 6.1 °F 6.8 °F 79% 30.33 in 10.0 mi North 3.5 mph - N/A   Clear
9:55 PM 10.4 °F -0.4 °F 5.0 °F 79% 30.32 in 9.0 mi ENE 6.9 mph - N/A   Clear
10:15 PM 10.4 °F - 6.8 °F 85% 30.32 in 9.0 mi Calm Calm - N/A   Clear
10:35 PM 8.6 °F - 5.0 °F 85% 30.33 in 10.0 mi Calm Calm - N/A   Clear
10:55 PM 8.6 °F - 5.0 °F 85% 30.32 in 10.0 mi Calm Calm - N/A   Clear
11:15 PM 8.6 °F - 5.0 °F 85% 30.32 in 10.0 mi Calm Calm - N/A   Clear
11:35 PM 8.6 °F - 5.0 °F 85% 30.32 in 10.0 mi Calm Calm - N/A   Clear
11:55 PM 8.6 °F - 6.8 °F 92% 30.32 in 8.0 mi Calm Calm - N/A   Clear